This is the latest recevied weather packets stored in our database for station/object K1BWE-1. If no packets are shown the sender has not sent any weather packets the latest 10 day(s).
| Time | Temp. | Humidity | Pressure | Rain* | Wind** | Luminosity | Snow |
|---|---|---|---|---|---|---|---|
| 1777654724 | 22.78° C | 34% | 1015.4 hPa | 0 mm | - | 878 W/m² | - |
| 1777654422 | 22.78° C | 34% | 1015.1 hPa | 0 mm | - | 846 W/m² | - |
| 1777654120 | 22.78° C | 34% | 1015.2 hPa | 0 mm | - | 837 W/m² | - |
| 1777653818 | 22.78° C | 34% | 1015.3 hPa | 0 mm | - | 790 W/m² | - |
| 1777653512 | 23.89° C | 35% | 1015.4 hPa | 0 mm | - | 766 W/m² | - |
| 1777653209 | 23.33° C | 38% | 1015.3 hPa | 0 mm | - | 741 W/m² | - |
| 1777652906 | 22.22° C | 37% | 1015.5 hPa | 0 mm | - | 705 W/m² | - |
| 1777652603 | 22.22° C | 37% | 1015.6 hPa | 0 mm | - | 680 W/m² | - |
| 1777652300 | 22.78° C | 42% | 1015.2 hPa | 0 mm | - | 653 W/m² | - |
| 1777651997 | 21.67° C | 38% | 1015.3 hPa | 0 mm | - | 595 W/m² | - |
| 1777651693 | 21.67° C | 39% | 1015.4 hPa | 0 mm | - | 596 W/m² | - |
| 1777651390 | 21.11° C | 39% | 1015.2 hPa | 0 mm | - | 584 W/m² | - |
| 1777651088 | 21.67° C | 40% | 1015.4 hPa | 0 mm | - | 505 W/m² | - |
| 1777650784 | 21.11° C | 41% | 1015.1 hPa | 0 mm | - | 482 W/m² | - |
| 1777650481 | 20.56° C | 41% | 1015.3 hPa | 0 mm | - | 485 W/m² | - |
| 1777650178 | 20.56° C | 42% | 1015.1 hPa | 0 mm | - | 495 W/m² | - |
| 1777649876 | 20.56° C | 43% | 1015.1 hPa | 0 mm | - | 459 W/m² | - |
| 1777649573 | 20.56° C | 44% | 1015 hPa | 0 mm | - | 420 W/m² | - |
| 1777649269 | 20.56° C | 44% | 1014.8 hPa | 0 mm | - | 376 W/m² | - |
| 1777648967 | 20.56° C | 43% | 1015 hPa | 0 mm | - | 379 W/m² | - |
| 1777648664 | 20° C | 48% | 1014.7 hPa | 0 mm | - | 323 W/m² | - |
| 1777648360 | 20° C | 45% | 1014.7 hPa | 0 mm | - | 298 W/m² | - |
| 1777648056 | 20.56° C | 46% | 1014.9 hPa | 0 mm | - | 268 W/m² | - |
| 1777647753 | 20° C | 46% | 1014.7 hPa | 0 mm | - | 263 W/m² | - |
| 1777647449 | 21.11° C | 46% | 1014.7 hPa | 0 mm | - | 266 W/m² | - |
* Rain latest hour (hover to see other rain measurements)
** Current wind speed in m/s (hover to see current wind gust speed)